Location: Warwick
(41.7000°N, 71.4170°W)
Time: 06:53:08
(UTC-05:00)

BREEZE-M DEB (TANK) - Visible Passes

Search period start: 08 December 2016 00:00
Search period end: 18 December 2016 00:00
Orbit: 308 x 15863 km, 49.5° (Epoch: 08 December)

Date Brightness Start Highest point End Pass type
(mag) Time Alt. Az. Time Alt. Az. Time Alt. Az.
08 Dec 5.0 03:49:37 60° NW 03:52:24 84° NNE 04:42:48 10° SE visible
09 Dec 5.0 03:52:30 59° NW 03:55:28 87° NNE 04:47:30 10° SE visible
10 Dec 5.0 03:55:23 58° WNW 03:58:31 90° SSW 04:52:05 10° SE visible
11 Dec 5.1 03:58:17 58° WNW 04:01:34 87° SSW 04:56:33 10° SE visible
12 Dec 5.1 04:01:11 56° WNW 04:04:38 83° SSW 05:00:55 10° SE visible
13 Dec 5.1 04:04:05 55° WNW 04:07:42 80° SW 05:05:09 10° SE visible
14 Dec 5.2 04:06:59 54° WNW 04:10:46 77° SW 05:09:16 10° SE visible
15 Dec 5.2 04:09:54 53° WNW 04:13:51 74° SW 05:13:14 10° SE visible
16 Dec 5.3 04:12:49 51° W 04:16:57 71° SW 05:17:05 10° SE visible
17 Dec 5.4 04:15:44 50° W 04:20:03 68° SW 05:20:46 10° SSE visible
